Tracking 19903 objects as of 17-Oct-2019
HD Live streaming from Space Station
objects crossing your sky now

BEIDOU 2 G8

Track BEIDOU 2 G8 now!
BEIDOU 2 G8 is classified as:


NORAD ID: 44231
Int'l Code: 2019-027A
Perigee: 35,785.1 km
Apogee: 35,802.2 km
Inclination: 1.5 °
Period: 1,436.1 minutes
Semi major axis: 42164 km
RCS: Unknown
Launch date: May 17, 2019
Source: People's Republic of China (PRC)
Launch site: Xichang Space Center, China (XSC)
aabbcc
Your satellite tracking list
Your tracking list is empty




NASA's NSSDC Master Catalog

Two Line Element Set (TLE):
1 44231U 19027A   19289.85743192 -.00000135  00000-0  00000+0 0  9990
2 44231   1.5371 294.1131 0002029 168.5277 311.1780  1.00272117  1679
Source of the keplerian elements: AFSPC